Trophy Lakes Weather Center

Moon Phase Calendar



Trophy Lakes Water Level
Online Cameras

 


      

Current Conditions in Shell Point
10/29/2020 12:55:12 AM

75°F
Feels Like 80
Clear
Humidity
88%
Pressure
29.97"
Wind
5.8 mph (SE)
Dew Point
72°F
UV Index
5/10 (Moderate)
Visibility
6 mi

Hourly Forecast

Date & Time Thu, Oct 29
12:00 AM
Thu, Oct 29
1:00 AM
Thu, Oct 29
2:00 AM
Thu, Oct 29
3:00 AM
Thu, Oct 29
4:00 AM
Thu, Oct 29
5:00 AM
Thu, Oct 29
6:00 AM
Thu, Oct 29
7:00 AM
Thu, Oct 29
8:00 AM
Thu, Oct 29
9:00 AM
Thu, Oct 29
10:00 AM
Thu, Oct 29
11:00 AM
Thu, Oct 29
12:00 PM
Thu, Oct 29
1:00 PM
Thu, Oct 29
2:00 PM
Thu, Oct 29
3:00 PM
Thu, Oct 29
4:00 PM
Thu, Oct 29
5:00 PM
Thu, Oct 29
6:00 PM
Thu, Oct 29
7:00 PM
Thu, Oct 29
8:00 PM
Thu, Oct 29
9:00 PM
Thu, Oct 29
10:00 PM
Thu, Oct 29
11:00 PM
Fri, Oct 30
12:00 AM
Fri, Oct 30
1:00 AM
Fri, Oct 30
2:00 AM
Fri, Oct 30
3:00 AM
Fri, Oct 30
4:00 AM
Fri, Oct 30
5:00 AM
Fri, Oct 30
6:00 AM
Fri, Oct 30
7:00 AM
Fri, Oct 30
8:00 AM
Fri, Oct 30
9:00 AM
Fri, Oct 30
10:00 AM
Fri, Oct 30
11:00 AM
Fri, Oct 30
12:00 PM
Fri, Oct 30
1:00 PM
Fri, Oct 30
2:00 PM
Fri, Oct 30
3:00 PM
Fri, Oct 30
4:00 PM
Fri, Oct 30
5:00 PM
Fri, Oct 30
6:00 PM
Fri, Oct 30
7:00 PM
Fri, Oct 30
8:00 PM
Fri, Oct 30
9:00 PM
Fri, Oct 30
10:00 PM
Fri, Oct 30
11:00 PM
Condition
Clear

Clouds

Clouds

Clouds

Clouds

Clouds

Clouds

Clouds

Clouds

Clouds

Clouds

Clouds

Clouds

Clouds

Clouds

Clouds

Rain

Rain

Rain

Rain

Rain

Clouds

Clouds

Rain

Rain

Rain

Clouds

Clear

Clear

Clear

Clear

Clear

Clear

Clear

Clear

Clear

Clear

Clear

Clear

Clear

Clear

Clear

Clear

Clear

Clear

Clear

Clear

Clear
Temperature 75°F75°F76°F76°F76°F77°F77°F77°F77°F78°F79°F80°F81°F82°F82°F82°F81°F80°F78°F77°F76°F76°F76°F76°F76°F74°F70°F63°F60°F59°F59°F58°F58°F59°F62°F65°F69°F72°F74°F75°F75°F74°F71°F67°F66°F65°F64°F63°F
Feels Like 79°F78°F77°F77°F78°F77°F77°F77°F76°F76°F76°F77°F78°F79°F80°F80°F80°F81°F80°F79°F78°F79°F79°F77°F75°F73°F63°F54°F51°F50°F49°F48°F48°F50°F54°F58°F64°F67°F69°F71°F71°F70°F67°F64°F62°F61°F60°F59°F
Cloudiness 1%37%62%94%99%100%100%100%100%100%100%100%97%92%87%67%76%77%80%78%66%29%37%27%26%42%51%1%0%0%0%0%0%0%0%0%0%0%0%0%0%0%0%0%1%0%0%0%
Visibility 6 mi6 mi6 mi6 mi6 mi6 mi6 mi6 mi6 mi6 mi6 mi6 mi6 mi6 mi6 mi6 mi6 mi6 mi6 mi5 mi6 mi6 mi6 mi6 mi6 mi6 mi6 mi6 mi6 mi6 mi6 mi6 mi6 mi6 mi6 mi6 mi6 mi6 mi6 mi6 mi6 mi6 mi6 mi6 mi6 mi6 mi6 mi6 mi
Precipitation 0%0%0%5%9%17%17%17%17%0%0%0%0%0%2%40%44%52%83%97%100%75%79%87%100%100%80%3%0%0%0%0%0%0%0%0%0%0%0%0%0%0%0%0%0%0%0%0%
Humidity 88%86%84%85%86%82%83%84%84%81%78%74%72%69%68%70%72%75%84%86%88%89%87%85%87%84%72%65%62%62%58%59%63%63%61%58%54%51%49%48%47%49%54%60%59%63%66%65%
Dew Point 72°F71°F71°F71°F72°F71°F71°F72°F72°F72°F72°F72°F71°F71°F71°F71°F71°F72°F73°F73°F73°F73°F72°F72°F72°F69°F60°F51°F48°F46°F44°F44°F45°F47°F49°F51°F52°F53°F54°F54°F54°F54°F54°F53°F52°F52°F53°F52°F
Pressure 29.97"29.97"29.94"29.91"29.88"29.88"29.85"29.85"29.85"29.83"29.83"29.83"29.83"29.8"29.77"29.74"29.71"29.71"29.71"29.71"29.71"29.71"29.71"29.71"29.71"29.71"29.71"29.74"29.77"29.77"29.8"29.83"29.85"29.88"29.91"29.91"29.94"29.94"29.94"29.94"29.94"29.94"29.97"30"30.03"30.06"30.09"30.12"
Wind Speed 7.8 mph9.7 mph11.5 mph11.6 mph12.5 mph15 mph15 mph15.7 mph17.4 mph18.6 mph20.3 mph21.3 mph19.8 mph19 mph17.9 mph17.5 mph15.7 mph14.2 mph12.5 mph11.4 mph12.1 mph9.6 mph11 mph14.6 mph15.6 mph15.5 mph17.9 mph16.4 mph15.7 mph15.1 mph15.2 mph14.7 mph14.2 mph14.1 mph13.1 mph12.5 mph11.5 mph10.9 mph10.3 mph9.8 mph9.3 mph9.9 mph8.2 mph8.3 mph8.5 mph8.7 mph8.6 mph8.4 mph
Wind
Direction
152°
SSE
156°
SSE
160°
SSE
165°
SSE
173°
S
177°
S
185°
S
193°
SSW
197°
SSW
203°
SSW
208°
SSW
211°
SSW
214°
SW
212°
SSW
209°
SSW
209°
SSW
212°
SSW
213°
SSW
212°
SSW
210°
SSW
215°
SW
208°
SSW
212°
SSW
218°
SW
223°
SW
239°
WSW
257°
WSW
263°
W
259°
W
260°
W
261°
W
265°
W
262°
W
267°
W
276°
W
286°
WNW
302°
WNW
314°
NW
320°
NW
326°
NW
341°
NNW
353°
N
353°
N

N
19°
NNE
30°
NNE
43°
NE
38°
NE

Daily Forecast

Date High Low Precip. Humidity
Today
Oct 29

Rain
82 °F
76 °F
100%
68%
Friday
Oct 30

Rain
74 °F
58 °F
100%
49%
Saturday
Oct 31

Clear
69 °F
56 °F
3%
54%
Sunday
Nov 1

Rain
72 °F
59 °F
44%
75%
Monday
Nov 2

Clear
61 °F
47 °F
0%
35%
Tuesday
Nov 3

Clear
63 °F
44 °F
0%
29%
Wednesday
Nov 4

Clear
69 °F
49 °F
0%
37%
Thursday
Nov 5

Clouds
74 °F
56 °F
0%
53%
Friday
Nov 6

Clear
74 °F
59 °F
0%
56%
Saturday
Nov 7

Clear
76 °F
60 °F
50%
58%
Sunday
Nov 8

Rain
77 °F
65 °F
69%
70%
Monday
Nov 9

Clear
78 °F
66 °F
33%
60%
Tuesday
Nov 10

Rain
78 °F
67 °F
38%
56%
Wednesday
Nov 11

Clouds
78 °F
65 °F
0%
57%
Thursday
Nov 12

Rain
70 °F
57 °F
45%
51%
Friday
Nov 13

Clear
64 °F
48 °F
3%
51%


Temperature 8-14 Day Outlook



Precipitation 8-14 Day Outlook




Quick Links
Trophy Lakes News
Trophy Lakes Photos
Trophy Lakes Videos




About Us
Contact Us
Site Map
Search Site
Advertise With Us
   
Trophy.LakesOnline.com
THE TROPHY LAKES WEBSITE

Copyright 2020, Lakes Online
Privacy    |    Legal